星链-11366 (STARLINK-11366)

导读

STARLINK-11366是美国(US)SpaceX星链互联网卫星星座的一员,于2024年10月30日发射入轨。作为星链低轨星座扩容任务的一部分,它将和大量同系列卫星协同,为全球提供高速低延迟宽带互联网服务,重点覆盖偏远地区、海洋与航空等传统通信盲区,进一步完善星链星座的全球服务能力。

基本信息
目录编号:
61693
目录名称:
STARLINK-11366
国际标识:
2024-195G
轨道中心:
EARTH
卫星名称:
星链-11366
卫星全名:
星链-11366 (STARLINK-11366)
卫星状态:
在轨 (已飞行588 天)
发射日期:
2024-10-30 UTC
国别 :
美国 (US)
星等 :
--
轨道信息
数据来源 国际轨道数据
星历时间: 2026-06-09T23:06:18+0800
19小时前
查看轨道信息
半长轴: 6737.854km
偏心率: 0.00008
轨道倾角: 53.160°
近地点辐角 94.162°
升交点赤经 293.040°
平近点角 265.949°
近地点: 359.177km
远地点: 360.257km
周期: 91.736分钟
每日圈数: 15.697136
详细信息
固有亮度:
5
最大亮度:
2.5
卫星平台:
Starlink V1.0
覆盖范围:
全球
运营商:
太空探索技术公司
运营商所在国:
美国
制造商(研发单位):
太空探索技术公司
制造商所在国:
美国
使用方式:
暂无
卫星简介
Starlink 计划是 SpaceX 推出的全球卫星互联网项目,通过发射低轨道卫星,为全球尤其是偏远地区提供高速、低延迟的互联网服务。自 2019 年起,Starlink 已部署数千颗卫星,旨在缩小全球数字鸿沟,推动互联网普及。该项目还为军事、航空等行业提供通信支持,带来广泛经济效益。
2D轨道图
3D轨道图
轨道高度分析图
轨道倾角分析图
轨道综合分析图
查看轨道综合分析图